Dewpoint
8 7 8 8 8 8 7 7 5 6 5 5 6 5 2 -1 -2 -4 -4 -5 -4 -3 0 3 4 3 3
9 8 9 8 8 8 7 6 5 6 6 6 6 6 2 -1 -2 -4 -4 -4 -4 -3 -2 3 4 4 3
9 9 9 9 9 9 8 8 6 6 7 6 7 6 1 -0 -1 -4 -4 -4 -3 -3 -2 3 5 4 4
9 9 10 10 10 9 9 8 7 7 7 7 7 6 2 2 -1 -4 -4 -3 -4 -3 0 1 2 5 5
9 9 10 10 10 9 9 8 8 8 7 8 7 7 2 2 -1 -3 -4 -4 -4 -2 0 3 5 5 4
9 9 8 8 9 8 9 9 8 8 7 7 8 7 3 1 -2 -3 -3 -3 -4 -3 1 2 3 3 4
10 9 10 9 8 9 8 8 8 8 7 7 8 7 5 1 -2 -3 -3 -3 -2 0 2 3 3 3 4
8 9 9 9 9 8 9 8 8 9 8 8 8 6 4 -1 -2 -2 -3 -3 -1 1 2 2 3 3 4
8 8 8 9 9 9 9 9 8 8 8 7 6 4 1 1 -1 -2 -3 -2 0 1 2 2 2 3 3
9 9 9 9 9 9 9 9 9 8 7 6 6 3 1 1 -2 -2 -2 -2 -1 1 1 1 2 2 2
7 7 8 8 8 8 8 9 9 8 7 7 5 2 2 -1 -2 -2 -2 -2 -1 -0 1 1 1 1 1
6 6 6 6 6 6 7 7 6 6 7 6 4 3 3 -1 -3 -2 -2 -2 -2 -1 0 1 1 1 1
3 4 3 3 3 4 4 4 4 4 3 4 3 2 -0 -2 -3 -3 -4 -4 -3 -2 -0 0 0 0 0
1 1 1 2 1 2 2 3 3 3 3 2 1 1 1 -0 -1 -2 -7 -7 -7 -4 -3 -2 -2 -1 -0
-1 -1 -1 -0 -0 -0 -0 1 1 1 1 0 0 1 0 0 -1 -5 -11 -12 -16 -19 -20 -21 -20 -16 -9
-6 -2 -2 -2 -1 -1 -1 -1 -1 -0 -2 1 0 -0 -1 -3 -5 -14 -16 -19 -20 -21 -23 -23 -24 -25 -25
-6 -5 -3 -2 -2 -2 -2 -1 -2 -2 -1 -1 -0 -0 -1 -6 -12 -16 -16 -17 -19 -20 -21 -22 -23 -24 -25
Wind_Speed
31 31 28 27 28 29 28 28 28 27 27 28 28 26 26 26 26 26 27 26 24 23 19 19 16 13 11
36 39 36 32 31 30 29 29 31 30 30 31 30 28 28 27 27 27 27 25 24 22 21 19 18 15 15
38 40 39 36 36 35 33 33 35 35 33 33 32 31 31 29 28 28 28 24 22 22 19 20 20 18 17
45 47 44 42 40 38 39 39 40 38 35 33 35 34 33 32 31 29 27 22 21 20 17 16 20 22 20
47 50 49 46 46 44 43 42 44 39 37 38 37 37 36 34 34 30 26 23 21 20 20 24 23 23 25
50 55 54 52 48 48 44 45 47 42 41 42 41 41 35 36 33 29 24 22 19 19 22 23 26 26 25
49 53 49 50 47 46 45 50 47 46 41 43 41 45 39 34 29 27 23 21 19 19 20 20 24 25 24
41 42 41 39 42 42 44 43 46 47 48 44 42 40 37 29 28 26 23 22 21 20 20 19 17 19 22
40 42 43 43 43 43 48 45 46 49 49 47 42 35 32 28 28 27 24 22 22 21 20 20 22 21 21
37 39 41 46 51 49 51 54 51 48 49 45 45 39 26 28 29 28 26 25 24 23 23 22 21 22 23
40 44 40 41 49 51 54 56 60 60 56 53 50 39 30 18 30 31 28 26 23 23 24 24 23 23 23
33 37 39 40 41 43 51 59 61 60 52 49 50 42 35 33 23 27 27 24 23 24 24 25 24 24 23
27 30 31 30 35 41 47 51 51 46 37 33 35 32 29 32 28 22 24 26 25 24 25 24 24 23 23
25 25 26 28 31 38 45 47 44 43 40 34 31 30 31 29 26 23 25 20 26 26 25 24 23 23 24
22 26 28 31 31 33 41 46 46 47 45 39 37 34 30 26 25 25 26 27 25 23 25 24 24 24 24
28 27 28 32 32 34 34 44 49 46 43 45 40 35 30 25 24 26 26 26 26 23 22 21 20 19 22
27 29 30 31 34 34 38 40 47 45 43 38 36 37 33 28 27 27 26 26 23 23 22 20 18 17 19
Wind_Direction
252 256 257 253 248 244 249 253 250 254 257 260 263 268 274 279 280 283 283 282 274 268 253 250 252 248 237
251 255 255 253 247 245 250 251 249 254 256 258 263 267 269 276 281 283 283 279 273 268 259 239 238 237 239
245 249 252 251 247 247 250 253 249 253 258 260 264 268 269 273 276 282 283 278 269 264 253 231 229 225 224
241 247 250 250 247 247 250 252 248 251 257 260 261 261 264 271 273 276 278 274 267 258 242 230 220 224 227
242 246 245 248 246 252 250 252 251 251 257 257 257 258 258 268 272 273 273 269 262 253 239 221 218 217 227
246 248 251 252 251 252 255 249 246 250 253 255 255 250 255 257 265 268 266 264 261 253 235 231 232 231 229
257 249 259 258 260 256 257 257 254 252 255 250 251 250 251 255 260 262 256 254 247 239 231 230 229 226 226
256 263 264 265 265 268 266 262 262 254 249 246 250 242 241 246 255 254 245 238 235 232 230 224 223 221 221
257 262 264 266 266 267 257 253 247 249 244 243 238 231 235 245 249 245 236 230 228 229 225 224 223 223 219
262 263 265 262 259 260 259 255 244 239 244 229 231 223 221 238 244 235 228 227 224 224 224 223 226 225 226
266 264 261 262 260 258 256 257 252 244 247 235 223 215 216 210 228 224 221 222 222 223 223 224 227 231 234
272 268 267 269 268 266 260 253 247 245 236 226 214 212 214 213 207 212 215 218 219 221 222 221 223 225 229
287 287 284 283 283 274 265 252 243 239 222 210 211 210 210 215 214 207 205 207 211 214 218 221 222 225 228
293 293 291 289 287 277 259 238 224 216 214 208 207 209 205 209 215 215 215 210 215 214 215 219 223 227 230
293 296 296 288 281 275 257 235 221 216 206 201 200 205 209 214 207 213 215 213 218 213 217 220 223 225 229
297 290 297 298 288 275 258 242 226 217 210 199 200 202 203 202 208 216 216 217 219 218 216 215 217 221 229
296 288 287 293 288 277 264 242 231 226 217 209 203 205 196 194 204 210 212 211 217 219 219 218 220 227 232
Height
1498 1501 1503 1504 1504 1506 1507 1508 1508 1510 1510 1510 1510 1509 1509 1507 1506 1505 1504 1502 1501 1502 1502 1504 1504 1508 1506
1490 1492 1495 1496 1498 1499 1500 1500 1500 1502 1502 1502 1503 1503 1502 1501 1500 1498 1497 1496 1495 1495 1496 1497 1500 1502 1504
1482 1482 1486 1488 1489 1491 1492 1492 1492 1493 1494 1495 1495 1496 1495 1494 1493 1491 1490 1489 1489 1489 1489 1491 1494 1496 1497
1472 1472 1476 1478 1478 1481 1481 1481 1482 1482 1486 1486 1487 1487 1487 1486 1484 1483 1482 1482 1482 1482 1484 1486 1487 1491 1494
1461 1461 1463 1465 1466 1468 1469 1471 1471 1472 1473 1475 1478 1479 1479 1478 1476 1476 1475 1475 1475 1477 1478 1480 1482 1484 1486
1452 1450 1451 1452 1455 1455 1458 1459 1460 1463 1462 1463 1466 1467 1469 1469 1468 1469 1468 1468 1468 1469 1472 1474 1476 1478 1482
1440 1438 1442 1442 1446 1446 1447 1448 1448 1451 1453 1452 1454 1456 1458 1460 1461 1461 1461 1461 1462 1464 1466 1468 1470 1473 1477
1428 1429 1431 1433 1433 1435 1436 1437 1438 1440 1442 1441 1443 1444 1447 1450 1453 1454 1453 1454 1457 1460 1462 1464 1465 1470 1471
1420 1420 1422 1423 1423 1424 1422 1425 1423 1425 1427 1428 1432 1433 1436 1439 1443 1445 1447 1448 1450 1453 1456 1460 1461 1465 1467
1408 1408 1409 1410 1409 1409 1410 1409 1409 1409 1412 1414 1417 1422 1423 1428 1432 1435 1438 1441 1443 1445 1450 1453 1458 1460 1462
1395 1394 1394 1394 1393 1395 1395 1394 1392 1390 1393 1397 1401 1407 1411 1411 1419 1425 1428 1431 1435 1439 1443 1448 1450 1455 1458
1384 1382 1382 1381 1381 1381 1381 1379 1378 1377 1377 1379 1385 1390 1396 1404 1408 1413 1418 1423 1426 1431 1436 1439 1443 1446 1449
1375 1373 1372 1372 1371 1370 1369 1368 1368 1371 1374 1375 1380 1384 1391 1397 1403 1403 1409 1412 1416 1421 1428 1434 1437 1440 1443
1369 1367 1364 1362 1362 1361 1360 1360 1360 1360 1363 1367 1372 1379 1382 1388 1394 1398 1404 1409 1412 1414 1420 1424 1429 1433 1437
1363 1361 1358 1357 1355 1353 1353 1353 1351 1352 1352 1357 1362 1368 1376 1381 1384 1393 1398 1400 1409 1410 1413 1416 1421 1424 1429
1356 1354 1352 1349 1347 1345 1345 1348 1346 1345 1351 1346 1353 1360 1367 1376 1381 1389 1394 1398 1404 1405 1409 1411 1414 1416 1421
1349 1346 1344 1342 1340 1338 1339 1335 1341 1343 1345 1348 1346 1354 1358 1365 1373 1381 1386 1390 1396 1400 1404 1405 1408 1410 1416